Weather History for Franklin, NC

Change the Weather History Date:

Sunday, March 30, 2014

  Actual Average (KTOC) Record (KTOC)
Temperature  
Mean Temperature 44 °F -  
Max Temperature 54 °F 69 °F 70 °F (2014)
Min Temperature 35 °F 46 °F 43 °F (2014)
Degree Days  
Heating Degree Days 20    
Moisture  
Dew Point 25 °F    
Average Humidity 51    
Maximum Humidity 85    
Minimum Humidity 26    
Precipitation  
Precipitation 0.01 in - - ()
Sea Level Pressure  
Sea Level Pressure 30.04 in    
Wind  
Wind Speed 10 mph (NW)    
Max Wind Speed 20 mph    
Max Gust Speed 30 mph    
Visibility 10 miles    
Events Rain    
Averages and records for this station are not official NWS values.
T = Trace of Precipitation, MM = Missing Value Source: NWS Daily Summary

Daily Weather History Graph

Daily Weather History Graph

Search for Another Location

Airport:

Trip Planner

Search our weather history database for the weather conditions in past years. The results will help you decide how hot, cold, wet, or windy it might be!

Date:

Astronomy

Mar. 30, 2014 Rise Set
Actual Time 7:23 AM EDT 7:53 PM EDT
Civil Twilight 6:57 AM EDT 8:19 PM EDT
Nautical Twilight 6:27 AM EDT 8:49 PM EDT
Astronomical Twilight 5:57 AM EDT 9:19 PM EDT
Moon 7:08 AM EDT (3/30) 8:03 PM EDT (3/30)
Length of Visible Light 13h 21m
Length of Day
12h 30m
Waning Crescent, 0% of the Moon is Illuminated
Mar 30
Waning Crescent
Mar 30
New
Apr 7
First Quarter
Apr 15
Full
Apr 22
Last Quarter

Hourly Weather History & Observations

Time (EDT) Temp. Windchill Dew Point Humidity Pressure Visibility Wind Dir Wind Speed Gust Speed Precip Events Conditions
12:15 AM 39.9 °F 34.5 °F 32.2 °F 74% 29.95 in 10.0 mi NW 8.1 mph - N/A   Drizzle
12:35 AM 39.6 °F 35.4 °F 32.0 °F 74% 29.96 in 10.0 mi NW 5.8 mph - N/A   Light Drizzle
12:55 AM 38.7 °F 32.4 °F 32.0 °F 77% 29.96 in 10.0 mi WNW 9.2 mph 17.3 mph N/A   Drizzle
1:15 AM 37.9 °F 32.1 °F 32.0 °F 79% 29.97 in 10.0 mi NW 8.1 mph 21.9 mph N/A   Drizzle
1:35 AM 37.6 °F 32.3 °F 32.0 °F 80% 29.97 in 10.0 mi WNW 6.9 mph 16.1 mph N/A   Drizzle
1:55 AM 36.9 °F 29.6 °F 32.0 °F 83% 29.98 in 7.0 mi WNW 10.4 mph 19.6 mph N/A   Drizzle
2:15 AM 36.7 °F 29.9 °F 32.0 °F 83% 29.97 in 10.0 mi WNW 9.2 mph - N/A   Drizzle
2:35 AM 36.5 °F 29.7 °F 32.0 °F 84% 29.97 in 10.0 mi WNW 9.2 mph 18.4 mph N/A   Drizzle
2:55 AM 36.1 °F 26.9 °F 32.0 °F 85% 29.97 in 7.0 mi WNW 15.0 mph 20.7 mph 0.01 in   Drizzle
3:15 AM 35.8 °F 26.5 °F 31.5 °F 84% 29.97 in 7.0 mi NW 15.0 mph 20.7 mph N/A   Drizzle
3:35 AM 35.6 °F 26.2 °F 31.1 °F 84% 29.97 in 7.0 mi WNW 15.0 mph 25.3 mph N/A   Drizzle
3:55 AM 35.2 °F 25.0 °F 30.9 °F 84% 29.97 in 10.0 mi WNW 17.3 mph 24.2 mph N/A Rain Light Rain
4:15 AM 35.6 °F 27.1 °F 31.1 °F 84% 29.97 in 10.0 mi WNW 12.7 mph 21.9 mph N/A Rain Light Rain
4:35 AM 35.6 °F 29.9 °F 31.1 °F 84% 29.97 in 10.0 mi WNW 6.9 mph 20.7 mph N/A   Light Drizzle
4:55 AM 35.6 °F 28.6 °F 31.1 °F 84% 29.97 in 10.0 mi NW 9.2 mph - N/A   Light Drizzle
5:15 AM 35.8 °F 29.4 °F 30.9 °F 82% 29.98 in 10.0 mi NW 8.1 mph 21.9 mph N/A Rain Light Rain
5:35 AM 35.8 °F 28.8 °F 30.7 °F 82% 29.97 in 10.0 mi WNW 9.2 mph 18.4 mph N/A   Light Drizzle
5:55 AM 35.8 °F 28.8 °F 30.6 °F 81% 29.97 in 10.0 mi West 9.2 mph 16.1 mph N/A   Overcast
6:15 AM 35.8 °F 31.9 °F 30.4 °F 81% 29.98 in 10.0 mi NW 4.6 mph 16.1 mph N/A   Overcast
6:35 AM 36.1 °F 31.4 °F 30.0 °F 78% 29.99 in 10.0 mi WNW 5.8 mph 18.4 mph N/A   Overcast
6:55 AM 36.1 °F 27.7 °F 29.8 °F 78% 29.99 in 10.0 mi WNW 12.7 mph 23.0 mph N/A   Overcast
7:15 AM 36.0 °F - 29.7 °F 78% 29.99 in 10.0 mi Calm Calm - N/A   Overcast
7:35 AM 35.8 °F 27.8 °F 28.4 °F 75% 30.00 in 10.0 mi WNW 11.5 mph 25.3 mph N/A   Mostly Cloudy
7:55 AM 35.8 °F 28.3 °F 28.0 °F 73% 30.02 in 10.0 mi West 10.4 mph 23.0 mph N/A   Scattered Clouds
8:15 AM 36.5 °F 28.2 °F 26.8 °F 68% 30.02 in 10.0 mi West 12.7 mph 27.6 mph N/A   Clear
8:35 AM 37.4 °F 28.2 °F 25.9 °F 63% 30.04 in 10.0 mi WNW 16.1 mph 25.3 mph N/A   Clear
8:55 AM 37.8 °F 29.0 °F 26.8 °F 65% 30.04 in 10.0 mi WNW 15.0 mph 27.6 mph N/A   Clear
9:15 AM 38.3 °F 30.1 °F 26.6 °F 63% 30.05 in 10.0 mi WNW 13.8 mph 25.3 mph N/A   Clear
9:35 AM 39.2 °F 31.6 °F 26.4 °F 60% 30.04 in 10.0 mi WNW 12.7 mph 26.5 mph N/A   Clear
9:55 AM 40.1 °F 32.4 °F 25.7 °F 56% 30.05 in 10.0 mi NW 13.8 mph 21.9 mph N/A   Clear
10:15 AM 41.2 °F 33.4 °F 24.6 °F 52% 30.06 in 10.0 mi WNW 15.0 mph 24.2 mph N/A   Clear
10:35 AM 42.8 °F 35.4 °F 25.2 °F 50% 30.06 in 10.0 mi NW 15.0 mph 25.3 mph N/A   Clear
10:55 AM 43.5 °F 38.3 °F 23.7 °F 46% 30.07 in 10.0 mi WNW 9.2 mph 23.0 mph N/A   Clear
11:15 AM 44.6 °F 37.4 °F 23.7 °F 44% 30.08 in 10.0 mi WNW 16.1 mph 29.9 mph N/A   Clear
11:35 AM 45.3 °F 37.8 °F 23.5 °F 42% 30.09 in 10.0 mi NW 18.4 mph 25.3 mph N/A   Clear
11:55 AM 46.6 °F - 24.3 °F 42% 30.08 in 10.0 mi West 19.6 mph 25.3 mph N/A   Clear
12:15 PM 47.8 °F - 23.9 °F 39% 30.09 in 10.0 mi WNW 17.3 mph 24.2 mph N/A   Clear
12:35 PM 48.7 °F - 23.4 °F 37% 30.07 in 10.0 mi WNW 13.8 mph 21.9 mph N/A   Clear
12:55 PM 49.8 °F - 23.2 °F 35% 30.06 in 10.0 mi West 11.5 mph 23.0 mph N/A   Clear
1:15 PM 50.9 °F - 22.5 °F 33% 30.06 in 10.0 mi WNW 10.4 mph 21.9 mph N/A   Clear
1:35 PM 51.6 °F - 21.2 °F 30% 30.06 in 10.0 mi NW 16.1 mph 25.3 mph N/A   Clear
1:55 PM 52.3 °F - 22.1 °F 31% 30.06 in 10.0 mi WNW 11.5 mph 19.6 mph N/A   Clear
2:15 PM 52.5 °F - 21.2 °F 29% 30.06 in 10.0 mi WNW 15.0 mph 20.7 mph N/A   Clear
2:35 PM 53.4 °F - 21.2 °F 28% 30.06 in 10.0 mi WNW 8.1 mph 17.3 mph N/A   Clear
2:55 PM 54.0 °F - 19.9 °F 26% 30.07 in 10.0 mi NW 10.4 mph 20.7 mph N/A   Clear
3:15 PM 53.6 °F - 19.9 °F 27% 30.07 in 10.0 mi NW 11.5 mph 26.5 mph N/A   Clear
3:35 PM 53.4 °F - 19.9 °F 27% 30.07 in 10.0 mi NNW 9.2 mph 27.6 mph N/A   Clear
3:55 PM 53.6 °F - 19.8 °F 27% 30.07 in 10.0 mi North 8.1 mph 23.0 mph N/A   Clear
4:15 PM 53.8 °F - 19.6 °F 26% 30.08 in 10.0 mi NW 12.7 mph 21.9 mph N/A   Clear
4:35 PM 53.6 °F - 19.8 °F 27% 30.07 in 10.0 mi NW 6.9 mph 20.7 mph N/A   Clear
4:55 PM 53.6 °F - 20.7 °F 28% 30.07 in 10.0 mi WNW 12.7 mph 21.9 mph N/A   Clear
5:15 PM 54.1 °F - 20.1 °F 26% 30.07 in 10.0 mi WNW 15.0 mph 19.6 mph N/A   Clear
5:35 PM 54.1 °F - 19.6 °F 26% 30.07 in 10.0 mi NW 8.1 mph 21.9 mph N/A   Clear
5:55 PM 54.5 °F - 20.3 °F 26% 30.06 in 10.0 mi NNW 6.9 mph - N/A   Clear
6:15 PM 54.3 °F - 20.3 °F 26% 30.06 in 10.0 mi NNW 9.2 mph 16.1 mph N/A   Clear
6:35 PM 53.8 °F - 20.5 °F 27% 30.07 in 10.0 mi NW 12.7 mph 17.3 mph N/A   Clear
6:55 PM 53.4 °F - 19.6 °F 27% 30.07 in 10.0 mi WNW 8.1 mph 24.2 mph N/A   Clear
7:15 PM 52.7 °F - 19.0 °F 27% 30.07 in 10.0 mi NNW 4.6 mph 16.1 mph N/A   Clear
7:35 PM 51.8 °F - 19.2 °F 28% 30.08 in 10.0 mi North 3.5 mph - N/A   Clear
7:55 PM 50.5 °F - 19.6 °F 30% 30.09 in 10.0 mi WNW 4.6 mph - N/A   Clear
8:15 PM 49.8 °F - 20.1 °F 31% 30.09 in 10.0 mi NNW 5.8 mph 16.1 mph N/A   Clear
8:35 PM 49.5 °F - 19.9 °F 31% 30.09 in 10.0 mi NNW 10.4 mph - N/A   Clear
8:55 PM 48.7 °F - 20.3 °F 33% 30.09 in 10.0 mi NW 5.8 mph - N/A   Clear
9:15 PM 48.6 °F - 20.3 °F 33% 30.10 in 10.0 mi NNW 10.4 mph - N/A   Clear
9:35 PM 48.6 °F - 20.3 °F 33% 30.11 in 10.0 mi NW 4.6 mph - N/A   Clear
9:55 PM 48.6 °F - 20.1 °F 33% 30.11 in 10.0 mi NNW 5.8 mph - N/A   Clear
10:15 PM 48.0 °F - 20.3 °F 33% 30.12 in 10.0 mi NW 5.8 mph - N/A   Clear
10:35 PM 46.8 °F - 20.7 °F 36% 30.12 in 10.0 mi NW 6.9 mph - N/A   Clear
10:55 PM 46.9 °F - 20.5 °F 35% 30.13 in 10.0 mi NNW 4.6 mph - N/A   Clear
11:15 PM 47.3 °F - 20.3 °F 34% 30.13 in 10.0 mi NW 3.5 mph - N/A   Clear
11:35 PM 45.9 °F 43.6 °F 21.0 °F 37% 30.13 in 10.0 mi NNW 4.6 mph - N/A   Clear
11:55 PM 47.1 °F - 20.5 °F 35% 30.13 in 10.0 mi NW 5.8 mph - N/A   Clear